Theta_e
292 286 283 287 291 291 290 289 288 292 296 294 294 294 296 298 298 297 298 299 301 301 304 305 328 339 339 338 337 338 339 339 342 340 337 336 336 338 336 338 341 342 344 342
291 285 290 292 292 290 289 288 287 291 294 293 292 292 296 298 298 299 299 300 300 303 301 303 315 332 337 335 336 336 337 336 340 339 338 336 336 336 337 338 338 340 342 342
289 291 296 293 290 288 288 287 287 288 292 293 291 289 292 296 297 298 299 301 301 301 300 301 305 318 334 334 335 335 336 336 339 338 337 336 340 337 336 337 338 339 341 342
289 295 294 292 292 292 286 292 291 291 291 282 290 280 287 291 292 295 297 298 301 301 301 301 302 308 329 333 335 337 336 335 338 338 337 336 335 334 336 337 339 341 341 341
285 289 289 289 291 294 290 295 292 293 291 290 288 283 286 290 290 292 295 297 298 301 301 301 302 305 321 333 333 335 336 335 337 338 338 336 335 337 339 340 340 344 342 342
287 293 294 292 295 296 296 293 291 290 288 283 287 286 284 289 290 293 295 297 299 300 300 301 302 305 314 328 333 334 335 335 336 340 340 339 338 339 340 342 340 343 345 345
285 286 290 294 290 295 291 289 278 276 276 278 287 285 289 293 295 296 297 297 298 299 300 301 300 300 312 324 331 333 334 334 336 337 342 342 342 342 341 344 344 344 345 345
278 277 285 292 290 288 289 287 279 269 271 278 288 284 288 297 300 300 300 299 298 298 297 299 301 300 304 323 330 333 334 334 336 337 339 342 340 343 344 345 346 346 346 345
278 280 290 292 294 291 287 283 290 283 283 278 283 287 292 296 297 297 297 299 298 297 299 301 301 301 301 311 327 332 334 335 335 337 340 341 341 343 344 345 344 343 341 340
286 279 288 291 294 294 291 294 284 283 276 274 279 282 283 289 291 295 296 298 300 304 306 307 308 303 301 304 324 330 333 334 335 338 341 343 343 344 345 344 340 339 337 335
288 284 284 289 287 285 287 288 288 285 281 277 276 280 289 291 293 296 299 301 302 303 304 305 309 309 302 304 323 330 331 332 333 337 341 343 341 342 341 338 337 337 335 332
290 284 278 285 291 295 293 289 287 280 278 284 282 281 295 295 298 300 300 301 302 303 304 307 314 314 305 302 320 335 334 333 337 340 343 342 341 341 336 333 333 331 326 323
289 284 277 280 286 292 289 291 291 289 289 283 279 281 294 297 298 299 300 301 302 304 305 307 314 315 308 303 316 336 338 338 342 344 341 339 336 333 329 322 319 317 315 314
294 285 283 277 281 285 284 288 289 285 280 279 283 285 291 293 294 296 298 300 302 304 305 306 309 317 313 308 318 333 341 344 344 340 336 332 327 322 317 314 311 310 309 307
290 283 286 285 287 287 286 286 286 284 285 280 283 284 289 292 293 296 302 304 304 305 306 307 309 315 309 313 325 337 341 340 338 331 324 320 318 315 312 310 307 308 305 303
287 276 281 280 286 286 284 286 287 287 287 286 287 286 293 295 296 297 300 304 305 306 308 310 316 315 311 320 332 335 332 329 326 319 315 314 312 309 306 305 305 303 301 300
285 283 280 276 284 284 281 287 287 289 290 290 285 289 294 294 301 304 304 305 305 310 311 318 321 320 322 330 329 327 323 320 317 314 312 311 309 305 304 302 301 299 298 297
284 284 283 279 281 275 289 293 292 289 292 296 296 298 299 301 303 303 304 306 307 307 305 312 313 313 317 319 317 317 316 315 313 311 310 308 305 303 302 300 298 297 297 296
288 285 280 278 279 284 289 289 289 287 288 296 294 301 303 304 302 297 300 301 304 305 303 307 311 312 312 312 313 313 311 311 310 309 307 307 305 301 300 298 296 296 295 295
291 286 283 283 278 275 286 291 293 294 286 295 296 296 303 302 291 292 298 299 300 300 301 303 307 308 308 309 310 308 307 307 306 306 307 305 303 301 299 298 297 296 294 294
285 284 279 280 279 284 290 291 294 287 289 294 296 300 297 294 295 298 299 299 299 300 300 302 302 303 305 306 306 304 305 304 307 307 306 306 304 301 301 298 296 295 293 293
284 282 283 283 278 277 292 289 287 292 295 297 299 299 297 297 296 296 296 296 298 298 299 300 300 300 302 303 302 301 301 305 306 305 304 302 302 302 300 297 295 294 293 291
284 286 283 284 284 292 293 293 297 298 296 298 300 299 298 295 295 295 295 296 297 297 298 299 298 298 300 301 301 298 299 301 301 300 299 300 300 300 299 296 295 293 292 291
290 292 288 288 290 292 294 297 300 304 302 301 301 299 298 295 295 294 295 295 295 297 297 299 298 297 298 300 299 299 299 299 297 295 295 295 294 294 294 296 296 294 292 291
289 291 289 289 291 294 293 296 299 301 301 300 300 299 297 296 295 295 295 295 296 296 297 298 298 298 298 299 299 299 298 296 293 292 292 291 290 290 289 289 291 291 291 293
292 290 286 285 292 292 292 296 298 297 299 300 299 298 299 298 297 297 295 296 296 295 296 296 296 297 298 298 298 298 297 295 292 291 290 289 289 289 290 289 289 290 290 290
Wind_Speed
5 4 6 12 13 12 9 7 10 8 7 8 16 16 11 9 8 9 8 9 9 10 12 6 10 17 19 18 16 16 17 15 13 10 10 7 8 7 5 4 7 8 8 9
1 6 9 15 10 10 9 11 13 8 9 8 14 23 17 19 17 12 11 12 11 9 6 9 9 10 16 20 20 18 18 16 14 10 7 4 5 3 7 7 8 10 11 11
4 8 13 11 9 11 11 14 11 12 5 9 10 20 15 14 11 10 10 13 10 12 10 9 8 12 14 16 18 20 20 18 16 12 6 2 4 3 4 5 6 7 9 9
8 5 3 9 10 10 13 9 13 13 6 5 4 9 5 8 12 10 12 11 14 12 7 9 10 9 12 14 13 16 17 18 18 18 15 18 11 10 8 6 7 7 10 10
10 14 14 11 6 3 9 6 10 10 7 3 4 5 5 7 10 10 10 11 12 15 9 12 13 12 12 12 14 14 16 17 16 18 17 14 12 5 3 4 7 8 8 10
14 9 10 11 13 8 4 2 3 1 3 7 15 11 6 8 10 7 7 10 11 11 8 8 12 12 12 9 11 14 16 17 17 16 17 18 16 11 8 8 8 7 6 7
16 10 8 18 10 10 2 3 3 2 2 9 4 7 18 6 9 12 12 8 10 7 6 8 9 10 13 12 10 11 15 17 18 17 16 17 13 13 14 11 9 9 7 4
5 9 2 8 15 3 5 9 5 7 4 5 4 6 16 16 18 8 12 11 8 8 6 7 9 11 14 17 17 14 15 16 15 16 17 14 11 9 8 10 8 6 6 7
5 7 7 9 5 9 5 7 12 5 2 3 4 9 15 12 16 6 9 8 10 9 7 6 7 8 9 13 16 19 17 16 17 18 15 13 12 11 10 8 9 7 7 8
3 13 6 5 1 11 11 5 4 2 5 5 5 7 11 4 4 6 6 6 7 5 7 6 6 7 7 10 15 16 19 21 19 19 16 13 14 12 10 10 11 13 12 13
6 7 8 3 4 4 2 6 3 3 4 4 2 9 6 15 11 4 6 6 7 8 8 7 7 7 8 8 11 14 14 14 13 13 12 13 12 12 12 12 11 12 13 15
2 5 7 6 10 9 7 3 5 4 5 5 3 11 3 4 3 4 6 8 7 6 8 7 9 7 6 8 11 13 13 12 13 15 14 13 12 13 13 13 14 14 14 10
3 4 5 7 0 5 2 2 0 2 2 6 4 6 2 5 8 8 9 8 8 7 9 7 7 8 6 8 11 13 14 15 14 15 15 14 14 14 16 15 15 15 16 14
12 4 7 2 3 2 5 6 3 4 2 3 10 14 15 11 9 15 10 9 8 10 11 9 6 8 7 8 12 14 13 15 15 15 15 13 16 17 18 16 16 17 16 15
4 4 5 9 12 10 11 12 12 9 7 7 6 13 16 8 11 14 8 8 10 12 13 10 10 8 6 8 11 12 13 15 16 17 17 14 16 17 19 19 18 15 17 14
3 5 5 7 9 7 9 10 11 14 14 17 19 27 20 19 15 12 11 8 10 12 13 14 12 6 10 14 16 16 15 16 17 17 18 18 17 18 17 18 17 17 16 13
4 4 4 6 7 12 6 2 4 8 10 11 14 22 14 15 6 5 8 10 7 8 13 10 5 7 11 15 14 13 14 18 19 20 19 19 19 19 18 17 16 16 15 13
5 2 2 7 7 3 3 6 9 13 14 9 11 14 6 2 5 10 11 9 4 6 9 7 8 11 11 13 22 16 14 16 17 19 19 18 21 21 19 17 16 15 12 13
10 4 4 4 2 8 1 5 7 7 9 11 12 6 2 4 3 11 14 12 9 3 12 10 7 16 16 17 20 17 16 17 16 17 18 18 20 22 19 17 15 13 14 13
2 9 3 2 4 4 4 14 20 8 6 14 15 14 6 5 4 5 12 14 13 15 15 13 10 17 18 15 19 21 16 16 14 15 17 18 17 20 19 17 14 12 15 14
5 1 7 6 4 5 9 23 17 4 5 17 16 7 13 8 7 7 10 14 16 15 17 16 17 19 15 16 21 22 17 16 13 16 19 19 16 19 16 17 13 14 15 13
4 6 3 4 4 5 18 17 5 7 14 13 10 10 16 14 14 13 14 15 16 18 18 16 18 20 16 18 21 22 19 14 14 16 19 18 17 14 13 15 13 14 13 13
2 3 4 2 3 8 16 18 21 18 13 6 8 11 16 16 15 14 15 16 17 18 16 16 20 21 19 19 18 23 16 14 15 18 16 16 16 15 12 14 13 11 10 9
3 4 3 5 3 9 17 19 16 14 13 14 12 13 16 17 15 16 15 15 15 16 15 15 19 21 19 18 18 16 16 13 16 16 14 13 14 13 11 9 8 8 8 7
4 9 7 4 9 5 20 19 14 15 16 16 15 14 16 18 16 16 15 16 14 15 14 14 15 15 15 13 14 14 12 13 13 13 10 10 10 12 10 10 6 6 4 6
6 5 5 4 12 7 13 16 18 17 15 14 17 17 16 16 17 15 15 13 13 14 13 14 14 14 13 12 12 11 12 8 12 9 7 7 9 10 8 9 9 16 13 15
Wind_Direction
205 156 195 205 212 220 224 240 261 250 264 296 276 289 285 284 291 301 276 260 251 238 250 212 202 188 176 174 171 180 179 177 172 176 174 181 190 186 184 170 174 173 182 184
294 240 226 223 223 221 223 240 259 269 250 243 271 270 269 264 262 242 251 264 256 254 244 249 185 191 187 179 177 176 186 175 182 182 175 178 164 198 197 184 190 189 186 184
280 272 292 233 233 222 230 231 244 244 251 256 281 281 254 254 245 238 228 238 244 234 225 233 210 197 189 190 183 181 182 180 179 175 156 122 107 100 156 196 193 186 180 188
266 259 346 266 245 224 245 222 243 250 253 238 143 282 206 229 247 217 228 220 239 240 210 225 225 198 202 198 190 183 180 182 185 173 176 187 195 188 192 177 191 186 184 188
240 262 282 277 249 275 266 201 221 220 225 288 264 255 256 209 237 240 222 223 232 242 209 200 218 214 206 190 183 180 182 186 186 188 186 186 197 180 166 172 175 176 188 186
255 260 252 235 242 230 355 5 346 293 180 232 233 209 225 216 224 249 227 231 218 237 230 201 216 221 212 202 191 177 181 186 187 185 187 191 192 170 174 167 183 187 182 186
303 258 247 228 259 238 113 94 275 318 196 239 204 206 245 254 226 227 239 235 254 236 236 221 188 207 214 206 195 187 181 190 189 188 186 188 190 181 183 179 178 174 171 163
323 321 230 200 224 226 179 166 234 194 186 241 341 213 255 220 246 225 226 239 247 262 217 226 237 194 209 208 195 186 188 189 190 190 192 187 173 179 174 174 169 155 149 144
306 255 318 298 263 187 172 215 226 290 302 359 242 269 288 248 248 224 242 240 242 246 252 229 237 231 193 204 208 196 186 193 188 190 189 187 175 163 170 148 118 118 109 97
274 292 252 297 171 228 225 175 167 197 207 227 253 252 235 14 156 211 248 243 263 265 276 275 238 248 224 206 206 209 197 189 189 189 187 177 175 169 138 127 133 131 118 106
265 238 299 331 233 228 153 209 164 156 170 202 239 254 213 226 249 213 269 279 259 275 271 270 267 238 220 204 203 195 199 193 181 182 177 168 159 144 127 127 141 134 127 124
305 292 281 250 246 313 273 217 165 172 206 219 268 261 275 185 170 190 256 277 289 270 270 270 275 258 222 204 189 188 180 177 179 167 157 158 140 125 119 132 123 127 120 122
306 260 313 303 317 221 94 144 4 67 84 220 215 262 122 337 332 309 293 297 295 295 289 261 268 256 225 197 186 184 179 178 164 155 148 143 130 125 128 113 114 111 110 107
270 257 256 256 309 3 317 314 229 151 198 254 239 282 283 304 298 296 293 270 278 289 283 278 263 254 228 194 182 177 168 159 152 140 133 138 129 124 116 113 112 108 108 108
3 268 288 279 267 255 254 258 254 234 223 230 274 280 276 282 288 276 263 285 292 290 287 269 261 244 220 174 166 162 147 140 140 131 126 130 121 118 117 116 114 116 107 108
8 290 335 286 268 261 267 260 258 248 246 245 256 267 272 274 274 272 270 284 281 295 278 271 253 202 187 172 163 146 138 128 126 124 125 124 124 115 113 110 112 111 106 106
302 314 335 272 323 312 282 8 320 284 254 236 246 251 278 283 284 337 331 298 287 313 315 244 154 164 165 145 127 123 132 127 127 129 129 125 123 117 111 109 106 102 103 104
246 248 262 282 321 341 80 33 330 315 269 327 291 259 258 192 105 39 4 324 309 357 335 2 95 81 90 110 107 108 121 117 122 125 127 127 120 116 111 106 106 104 104 98
223 208 266 274 266 286 7 30 341 342 297 349 341 300 122 161 181 51 11 2 31 2 56 30 41 95 90 88 90 111 109 111 122 124 127 129 125 115 113 110 110 109 104 92
278 197 226 304 330 295 19 331 326 295 259 355 347 326 260 323 66 16 17 17 38 45 53 32 61 79 79 91 102 96 94 103 110 121 121 109 112 109 111 111 108 111 98 101
316 169 237 260 250 275 0 335 319 230 334 327 329 29 59 68 55 62 47 44 41 44 61 57 51 69 73 89 89 87 89 89 108 108 100 98 100 101 107 107 114 109 103 103
316 322 344 323 339 334 348 327 342 295 303 308 327 74 87 77 63 55 55 52 51 57 52 64 68 64 60 71 84 82 77 86 97 97 96 99 101 102 105 109 109 102 108 103
335 342 299 333 299 285 289 274 281 269 260 300 90 81 86 79 68 61 59 55 53 53 58 60 64 64 56 62 69 78 75 76 81 83 84 92 95 99 104 111 108 104 104 107
288 314 309 313 284 318 341 344 360 40 77 83 88 94 90 86 76 67 58 55 53 50 52 62 66 67 63 55 63 66 71 72 73 75 78 85 86 92 89 91 104 110 113 111
311 311 317 301 342 339 2 3 17 46 69 82 79 84 90 94 80 79 69 60 55 50 46 51 60 64 65 62 69 62 75 66 77 70 71 88 87 86 82 69 72 99 65 117
334 337 1 1 4 5 4 9 31 49 58 74 87 83 74 78 81 75 72 64 60 54 47 49 52 61 65 63 67 72 71 87 93 108 90 90 96 91 91 97 88 61 89 89